www.pogodaiklimat.ru

Погода и климат >> Архив погоды >> Россия >> Свердловская область >> Атымья


ПОГОДА в Атымье

  • Прогноз погоды в Атымье
  • Монитор погоды в Атымье

АРХИВ ПОГОДЫ в Атымье

Время (UTC), дата Ветер
(напр.,м/с)
 
Видим.   Явления Облачность Т
(С)
Тd
(С)
f
(%)
Тe
(С)
Тes
(С)
Комфортность P
(гПа)
Po
(гПа)
Тmin
(С)
Tmax
(С)
R
(мм)
R24
(мм)
S
(см)
06 11.09 ЮЗ 3 20 км 9/0
[Ac lent Ci fib]
+12.8 +6.1 64 +12 +15 1028.9 1015.3
09 11.09 З 2 20 км 10/3 600 м
[Cb cap Ac cast Cc]
+15.4 +6.3 55 +15 +17 1027.1 1013.7
12 11.09 ЮЗ 2 20 км 10/1 600 м
[Cb cap Ac trans Ci fib]
+16.3 +7.4 56 +16 +17 1025.4 1012.1
15 11.09 ЮЗ 1 20 км 10/0
[Ac cast Cc]
+11.7 +8.2 79 +12 +12 1023.7 1010.2 +16.7
18 11.09 ЮЗ 2 10 км 10/10 600 м
[Sc]
+13.7 +8.7 72 +13 +13 1021.6 1008.2
21 11.09 ЮЗ 2 10 км 10/10 600 м
[Sc]
+12.1 +11.1 94 +11 +11 1020.0 1006.5
00 12.09 З 2 10 км в посл. час ливневой дождь 8/4 600 м
[Cb cap Ac As Ci fib]
+11.8 +10.8 94 +11 +11 1019.4 1006.0
03 12.09 СЗ 3 20 км 10/3 600 м
[Cb cap Ac As Ci]
+11.5 +10.1 91 +10 +10 1020.2 1006.7 +10.2 2
06 12.09 СЗ 3 20 км {ливн. осадки} 10/10 600 м
[Cb cap]
+13.2 +10.9 86 +12 +12 1021.2 1007.8
09 12.09 СЗ 2 20 км 6/6 600 м
[Cb cap]
+16.5 +9.4 63 +17 +19 1022.0 1008.7
12 12.09 З 1 20 км 8/4 600 м
[Cb cap Ac lent]
+16.5 +9.0 61 +17 +18 1021.6 1008.4
15 12.09 З 1 50 м 10/5 600 м
[Cb cap Ac lent]
+11.9 +9.1 83 +12 +12 1021.5 1008.0 +18.0 0.0
18 12.09 штиль 0 10 км 10/4 600 м
[Cb cap Ac lent Cs]
+8.9 +8.1 95 +8 +8 1021.3 1007.6
21 12.09 штиль 0 10 км 10/3 600 м
[Cb cap Ac lent Cs]
+8.2 +7.4 95 +7 +7 1020.0 1006.4
00 13.09 штиль 0 10 км 10/6 600 м
[Cb cap Ac lent Cs]
+7.3 +6.6 95 +6 +6 1017.4 1003.8
03 13.09 ЮЗ 1 20 км 10/6 600 м
[Cb cap As trans]
+9.9 +9.1 95 +9 +9 1016.9 1003.4 +7.3
06 13.09 З 1 4000 м слаб. ливневой дождь 10/10 600 м
[Cb cap]
+13.5 +11.8 89 +14 +14 1013.8 1000.5
09 13.09 З 2 20 км {ливн. осадки} 10/3 600 м
[Cb cap Ac As Cs]
+18.4 +13.5 73 +19 +21 1012.4 999.4
12 13.09 З 5-10
{11}
20 км {ливн. осадки} 10/4 600 м
[Cb cap Ac lent Cs]
+18.8 +7.9 49 +19 +19 1011.6 998.6
15 13.09 З 1
{10}
10 км 10/1 600 м
[Cb cap Ac As]
+12.3 +9.1 81 +12 +12 1012.0 998.7 +20.5
18 13.09 ЮЗ 1 10 км 5/0
[Ac trans Ci fib]
+9.4 +8.0 91 +9 +9 1011.9 998.4
21 13.09 СВ 3 4000 м слаб. ливневой дождь 10/10 600 м
[Cb cap]
+11.9 +10.9 94 +10 +10 1011.1 997.7
00 14.09 4000 м дымка {ливн. осадки} н/о +10.0 +10.0 100 +8 +8 1010.3 996.9
03 14.09 З 3 4000 м дымка 9/1 600 м
[Cb cap Ac trans Cc]
+9.7 +9.7 100 +7 +7 1010.4 997.0 +9.4 1
06 14.09 З 2 20 км 10/0 2000 м
[Ac trans Cc]
+17.6 +12.2 71 +18 +21 1009.5 996.5
09 14.09 ЮЗ 2 20 км 10/3 600 м
[Cb cap Ac As Cs]
+19.8 +10.8 56 +22 +24 комфорт 1009.0 996.1
12 14.09 Ю 1
{10}
4000 м слаб. ливневой дождь 10/1 600 м
[Cb cap Ac As Cs]
+15.4 +13.6 89 +16 +17 1009.0 995.9
15 14.09 Ю 1 10 км {ливн. осадки} 10/5 600 м
[Cb cap Ac As Cs]
+14.2 +13.1 93 +14 +14 1008.4 995.2 +20.0 0.7
18 14.09 Ю 1 4000 м дымка {ливн. осадки} 10/10 600 м
[Cb cap]
+14.2 +12.4 89 +15 +15 1007.1 993.9
21 14.09 штиль 0 4000 м дымка 10/3 600 м
[Cb cap Ac trans Ci fib]
+10.6 +9.8 95 +10 +10 1006.5 993.1
00 15.09 штиль 0 4000 м дымка 10/6 600 м
[Cb cap Ac und]
+8.4 +8.4 100 +7 +7 1005.9 992.4
03 15.09 Ю 1 4000 м дымка 10/6 600 м
[Cb cap As trans]
+12.4 +7.9 74 +12 +13 1005.1 991.9 +7.7
06 15.09 Ю 1 20 км {ливн. осадки} 10/3 600 м
[Cb cap Ac lent Cs]
+16.3 +10.3 68 +17 +19 1004.4 991.3
09 15.09 Ю 1 20 км 10/4 600 м
[Cb cap Ac lent Cs]
+18.7 +9.2 54 +20 +22 1003.6 990.6
12 15.09 ЮЗ 1 4000 м слаб. ливневой дождь 10/10 600 м
[Cb cap]
+17.3 +10.6 65 +18 +18 1003.2 990.2
15 15.09 ЮЗ 1 10 км в посл. час ливневой дождь 10/8 600 м
[Cb cap Ac As]
+12.5 +11.6 94 +12 +12 1002.8 989.6 +18.9 0.7
18 15.09 Ю 2 10 км {ливн. осадки} 10/3 600 м
[Cb cap Ac cast]
+10.9 +9.7 92 +9 +9 1002.5 989.3
21 15.09 ЮЗ 1 10 км 10/5 600 м
[Cb cap Ac lent]
+10.2 +9.4 95 +10 +10 1002.3 989.0
00 16.09 штиль 0 10 км 8/3 600 м
[Cb cap Ac lent]
+7.3 +5.4 88 +6 +6 1002.0 988.6
03 16.09 С 1 20 км 8/0 2000 м
[Ac lent Ci fib]
+5.3 +4.6 95 +4 +4 1002.0 988.5 +5.1
06 16.09 З 3 20 км 8/0 2000 м
[Ac trans Cs]
+11.3 +5.7 68 +10 +13 1002.1 988.9
09 16.09 З 4 20 км 9/9 600 м
[Cb cap]
+13.0 +1.3 45 +12 +12 1001.4 988.2
12 16.09 З 3 20 км 5/4 600 м
[Cb cap Ci fib]
+13.7 +0.8 41 +13 +14 1000.3 987.2
15 16.09 ЮЗ 1 10 км 3/1 600 м
[Cb cap Ac trans]
+6.5 +3.4 81 +6 +6 1000.2 986.7 +16.0
18 16.09 С 1 4000 м дымка ясно +1.4 +0.9 96 -1 -1 999.4 985.7
21 16.09 С 1 4000 м дымка 6/0 2000 м
[Ac As Ci]
-0.2 -0.8 96 -2 -2 998.1 984.3
00 17.09 В 1 10 км {ливн. осадки} 8/3 2000 м
[Cb cap Ac trans Ci]
+1.6 +1.6 100 -1 -1 996.7 983.0
03 17.09 В 1 4000 м дымка 10/8 600 м
[Cb cap Ci]
+3.8 +3.6 99 +2 +2 995.3 981.8 -0.2 0.3
06 17.09 Ю 1 4000 м слаб. дождь 10/10 600 м
[Sc]
+6.4 +6.0 97 +5 +5 994.9 981.5
09 17.09 Ю 1 20 км {дождь} 10/10 600 м
[Sc]
+8.7 +7.0 89 +8 +8 995.1 981.8
12 17.09 Ю 1 20 км {дождь} 10/10 600 м
[Cb cap]
+10.9 +6.9 76 +11 +11 995.2 982.0
15 17.09 ЮВ 1 10 км в посл. час ливневой дождь 8/8 600 м
[Cb cap]
+7.4 +7.0 97 +6 +6 995.9 982.5 +11.2 4
18 17.09 Ю 2 10 км {ливн. осадки} 3/0 2000 м
[Ac trans]
+6.7 +6.3 97 +4 +4 995.8 982.4
21 17.09 Ю 1 4000 м дымка 8/0
[Ac und Ci]
+3.4 +3.4 100 +2 +2 995.6 982.1
00 18.09 Ю 1 4000 м дымка 10/10 600 м
[Cb cap]
+5.3 +5.3 100 +4 +4 995.2 981.8
03 18.09 Ю 1 4000 м дымка 10/10 600 м
[Sc]
+6.3 +6.3 100 +5 +5 995.4 982.0 +3.4

 

Местоположение метеостанции Атымья (Свердловская область, Россия): широта 61.03 долгота 62.22 высота над уровнем моря 111 м.

В архиве по умолчанию представлена погода в Атымье за последнюю неделю. Архивные данные за месяц целиком и за предыдущие месяцы, начиная с января 2011 года, Вы можете получить, выбрав интересующий диапазон дат из раскрывающегося списка и нажав кнопку "Ввод!".


*Определитесь, кто Вы:
робот инопланетянин человек

Внимание! Время в таблицах - всемирное. Для получения местного времени необходимо прибавить поправку, которая равна 5 ч.

Смотрите также архив погоды в соседних городах и на ближайших метеорологических станциях:

Погода в Югорске (Ханты-Мансийский АО, Россия) (69 км)
Погода в Бурмантово (Свердловская область, Россия) (98 км)
Погода в Ивделе (Свердловская область, Россия) (103 км)
Погода в Агирише (Ханты-Мансийский АО, Россия) (108 км)
Погода в Шаиме (Ханты-Мансийский АО, Россия) (135 км)
Погода в Североуральске (Свердловская область, Россия) (151 км)
Погода в Няксимволе (Ханты-Мансийский АО, Россия) (171 км)
Погода в Вонъегане (Ханты-Мансийский АО, Россия) (175 км)
Погода в Гарях (Свердловская область, Россия) (178 км)
Погода в Серове (Свердловская область, Россия) (184 км)

Пояснения к столбцам:

Ветер - указаны скорость ветра в м/с - средняя за 10 мин, порывы в срок и между сроками (в фигурных скобках) и направление, откуда дует ветер: С - северный, СВ - северо-восточный, В - восточный, ЮВ - юго-восточный, Ю - южный, ЮЗ - юго-западный, З - западный, СЗ - северо-западный.
Видимость - горизонтальная дальность видимости в метрах или километрах. При видимости от 1 до 10 км при отсутствии осадков обычно наблюдается дымка, при ухудшении видимости до 1 км и менее - туман. В сухую погоду видимость может ухудшаться дымом, пылью или мглою.
Явления - указаны атмосферные явления, наблюдавшиеся в срок или в последний час перед сроком; фигурными скобками обозначены явления, наблюдавшиеся между сроками (за 1-3 часа до срока); квадратными скобками обозначены град или гололедные отложения с указанием их диаметра в мм.
Облачность - указаны через наклонную черту общая и нижняя облачность в баллах и высота нижней границы облаков в метрах; квадратными скобками обозначены формы облаков: Ci - перистые, Cs - перисто-слоистые, Cc - перисто-кучевые, Ac - высококучевые, As - высокослоистые, Sc - слоисто-кучевые, Ns - слоисто-дождевые, Cu - кучевые, Cb - кучево-дождевые. Подробнее классификацию облаков см. в Атласе облаков (PDF).
T - Температура воздуха - температура, измеренная на высоте 2 м над землей.
Td - Температура точки росы - температура, при понижении до которой содержащийся в воздухе водяной пар достигнет насыщения.
f - Относительная влажность воздуха - влажноcть воздуха, измеренная на высоте 2 м над землей.
Te - Эффективная температура - температура, которую ощущает одетый по сезону человек в тени. Характеристика душности погоды. При расчете учитывается влияние влажности воздуха и скорости ветра на теплоощущения человека.
Tes - Эффективная температура на солнце - температура, которую ощущает человек, с поправкой на солнечный нагрев. Характеристика знойности погоды. Зависит от высоты солнца над горизонтом, облачности и скорости ветра. Ночью, в пасмурную погоду, а также при ветре 12 м/с и более поправка равна нулю.
P - Атмосферное давление - приведенное к уровню моря атмосферное давление.
Po - Атмосферное давление - измеренное на уровне метеостанции атмосферное давление.
Tmin - Минимальная температура - минимум температуры воздуха на высоте 2 м над землей.
Tmax - Максимальная температура - максимум температуры воздуха на высоте 2 м над землей.
R - Количество осадков - Количество выпавших осадков за период времени, мм. При наведении курсора мыши на число - период времени, за который выпало указанное количество осадков.
R24 - Количество осадков - Количество выпавших осадков за 24 часа, мм.
S - Снежный покров - Высота снежного покрова, см. При наведении курсора мыши на число - состояние снежного покрова и степень покрытия местности в баллах.